Back to catalog

STARLINK-37557

AliveCommunicationsSSO
NORAD 69231·PAYLOAD·🇺🇸 United States

Launched May 26, 2026 from Vandenberg Space Force Base

Loading…

Next Passes (next 24 hours)

TLE

FreshSource: CelesTrak SupGP

Epoch: Sep 14, 2026, 14:46 UTC

1 69231C 26115W   26257.61576389 -.00034891  00000+0 -10831-2 0  2571
2 69231  97.2832 273.8562 0001215 107.8464 221.4093 15.33456878    18

Track STARLINK-37557 in real time with AllMySat

Download on the App Store